Whiteman AFB, MO

12:53 PM CST on December 09, 2019 (GMT -0600)
Whiteman Air Force Base

Weather History for KSZL - October, 2019

Change the Weather History Date:

Saturday, October 26, 2019

  Actual Average Record
Temperature  
Mean Temperature 46 °F -  
Max Temperature 56 °F 62 °F 84 °F (2014)
Min Temperature 36 °F 45 °F 30 °F (2005)
Degree Days  
Heating Degree Days 20    
Moisture  
Dew Point 42 °F    
Average Humidity 94    
Maximum Humidity 100    
Minimum Humidity 69    
Precipitation  
Precipitation 0.00 in - - ()
Sea Level Pressure  
Sea Level Pressure 29.84 in    
Wind  
Wind Speed 4 mph (North)    
Max Wind Speed 8 mph    
Max Gust Speed -    
Visibility 10 miles    
Events      
Averages and records for this station are not official NWS values.
T = Trace of Precipitation, MM = Missing Value Source: NWS Daily Summary

Daily Weather History Graph

Daily Weather History Graph

Search for Another Location

Airport or City:

Astronomy

Oct. 26, 2019 Rise Set
Actual Time 7:34 AM CDT 6:21 PM CDT
Civil Twilight 7:07 AM CDT 6:48 PM CDT
Nautical Twilight 6:36 AM CDT 7:19 PM CDT
Astronomical Twilight 6:05 AM CDT 7:50 PM CDT
Moon 5:32 AM CDT (10/26) 5:55 PM CDT (10/26)
Length of Visible Light 11h 41m
Length of Day
10h 46m
Waning Crescent, 3% of the Moon is Illuminated
Oct 26
Waning Crescent
Oct 27
New
Nov 4
First Quarter
Nov 12
Full
Nov 19
Last Quarter

Hourly Weather History & Observations

Time (CDT) Temp. Windchill Dew Point Humidity Pressure Visibility Wind Dir Wind Speed Gust Speed Precip Events Conditions
12:56 AM 41.0 °F 39.0 °F 39.2 °F 93% 30.09 in 10.0 mi North 3.5 mph - N/A   Overcast
1:56 AM 39.7 °F 37.6 °F 39.7 °F 100% 30.06 in 10.0 mi NNE 3.5 mph - N/A   Overcast
2:56 AM 38.8 °F 35.4 °F 38.8 °F 100% 30.03 in 10.0 mi NNE 4.6 mph - N/A   Mostly Cloudy
3:56 AM 37.6 °F 33.1 °F 37.6 °F 100% 29.99 in 10.0 mi North 5.8 mph - N/A   Scattered Clouds
4:56 AM 36.5 °F 32.7 °F 36.5 °F 100% 29.97 in 10.0 mi North 4.6 mph - N/A   Partly Cloudy
5:56 AM 37.4 °F 34.9 °F 37.4 °F 100% 29.93 in 10.0 mi North 3.5 mph - N/A   Mostly Cloudy
6:56 AM 37.8 °F 35.3 °F 37.8 °F 100% 29.94 in 10.0 mi NNE 3.5 mph - N/A   Partly Cloudy
7:56 AM 37.4 °F 31.4 °F 37.4 °F 100% 29.86 in 10.0 mi NNW 8.1 mph - N/A   Overcast
8:56 AM 39.6 °F 37.4 °F 39.6 °F 100% 29.86 in 10.0 mi NNE 3.5 mph - N/A   Mostly Cloudy
9:56 AM 42.8 °F 38.6 °F 42.8 °F 100% 29.86 in 10.0 mi North 6.9 mph - N/A   Mostly Cloudy
10:56 AM 44.8 °F 41.0 °F 44.6 °F 99% 29.83 in 10.0 mi North 6.9 mph - N/A   Mostly Cloudy
11:56 AM 46.4 °F 43.5 °F 45.0 °F 95% 29.81 in 10.0 mi North 5.8 mph - N/A   Mostly Cloudy
12:56 PM 48.9 °F - 45.9 °F 89% 29.77 in 10.0 mi NNW 6.9 mph - N/A   Mostly Cloudy
1:56 PM 50.9 °F - 46.6 °F 85% 29.72 in 10.0 mi NNW 6.9 mph - N/A   Scattered Clouds
2:56 PM 52.3 °F - 46.0 °F 79% 29.72 in 10.0 mi NW 6.9 mph - N/A   Mostly Cloudy
3:56 PM 52.9 °F - 46.2 °F 78% 29.70 in 9.0 mi Calm Calm - N/A   Mostly Cloudy
4:56 PM 55.9 °F - 45.9 °F 69% 29.70 in 10.0 mi Calm Calm - N/A   Mostly Cloudy
5:56 PM 54.3 °F - 45.9 °F 73% 29.71 in 10.0 mi NW 3.5 mph - N/A   Partly Cloudy
6:56 PM 48.7 °F - 48.4 °F 99% 29.71 in 10.0 mi Calm Calm - N/A   Partly Cloudy
8:56 PM 41.2 °F - 41.2 °F 100% 29.72 in 10.0 mi Calm Calm - N/A   Clear
9:56 PM 41.4 °F 39.4 °F 41.4 °F 100% 29.73 in 10.0 mi South 3.5 mph - N/A   Clear
10:56 PM 42.3 °F 38.6 °F 42.3 °F 100% 29.75 in 10.0 mi South 5.8 mph - N/A   Clear
11:56 PM 41.5 °F 37.1 °F 41.5 °F 100% 29.76 in 10.0 mi South 6.9 mph - N/A   Clear